SL-16 DEB, 22604

Orbit data source: Space-Track

SL-16 DEB, 22604 is space debris in LEO originally from a launch on Fri, 26 Mar 1993 UTC launched from the Tyuratam Missile And Space Complex (TTMTR). Debris objects in space refer to the collection of defunct objects orbiting the Earth. Examples of debris include non-operational satellites, rocket bodies, and fragments generated from explosions, collisions, or faulty payload assembly.

Loading next visibility...
Identifier
22604, 1993-016N
Orbit
LEO
Country
Flag of CISCIS
Related business
Manufacturer
Unknown
Mission
Spacecraft
Bus & Motor
Unknown
Mass
Unknown
Launch date (UTC)
1993-03-26 (33 years ago)
Launch vehicle
Unknown
Launch site
Tyuratam Missile And Space Complex (TTMTR)
Object type
Payload
Rocket body
Debris
Shape & HBR
Unknown shape, 0.2 m
Radar Cross Section
Medium (>0.1 m² and <1 m²)

Expand to show TLE details & history
Last TLE update: 10 hours ago

TLE from 10 hours ago
0 SL-16 DEB
1 22604U 93016N   26035.39886672 -.00000011  00000-0  30229-4 0  9991
2 22604  70.9930  26.1844 0171863 267.3605 204.9574 13.76494528650757
Epoch: 2026-02-04T09:34Z
TLE epoch observation values (Epoch: 2026-02-04T09:34:22.084Z)
Latitude
61.7066°
Longitude
-111.51616°
Altitude
1,101.351 km
Speed
7.25 km/s
True Right ascension
11h 06m 34s
True Declination
61° 34' 10"
Sunlit
Object was in full shadow at epoch
Visualization orbit readout
Latitude
Unknown
Longitude
Unknown
Altitude
Unknown
Speed
Unknown
Apparent Right ascension
Unknown
Apparent Declination
Unknown
Sunlit
N/A
Visualization observer readout
Local Sidereal Time
21:37:26
Azimuth
Unknown
Elevation
Unknown
Doppler factor
Unknown
Orbital elements
Apogee altitude
1,100.671 km
Perigee altitude
847.948 km
Semi-major axis
7,352.446 km
Eccentricity
0.01719
Inclination
70.993°
RAAN
26.1844°
Arg. of periapsis
267.3605°
True anomaly
204.14234°
Mean anomaly
204.9574°
Eccentric anomaly
204.5483°
Mean motion
3.44267 °/min
Orbital period
104.57 mins
BSTAR
0.000030229
Loading maneuver chart data...
Computing Atmospheric mass density...
Loading historical data...
Loading historical data...
Loading historical data...
Loading historical data...
Loading historical data...
Loading historical data...
Loading historical data...

Documentation

Showing up to 5 results
|